Content
SEND FEEDBACK

Daily
Averages
Monthly
Summary
United States of America

SOUTH LAKE TAHOE, CALIFORNIA


Home > North America > United States > California
Elevation: 6263 feet     Latitude: 38 53N     Longitude: 119 59W

WEATHER
 
SELECT A DAY
Number of Records: 174,516;   Date Range: 1/1/95 - 8/28/14
 
SHARE

PRINT THIS DATA

[ ← Previous Day ]
WEATHER ALMANAC - JANUARY 4, 2013
[ Next Day → ]
[ °C ]   °F
Weather ElementAverageHighLow
Temperature24.3 °F44.1 °F (2:53 pm)5 °F (4:53 am)
Dewpoint18.8 °F30 °F (3:53 pm)-2 °F (7:53 am)
Humidity80.4 %93 % (8:24 pm)49 % (2:53 pm)
Barometer30.28 in30.48 in (7:53 am)30.20 in (5:03 pm)
Wind Speed1.2 mph8.1 mph (1:53 pm)
Weather ElementAverage
Visibility5.1 mi
Wind DirectionNNE (37.6 °)

Weather ElementTotal
Precipitation---
Heating Degree Days40.5 (Base 65)
Averaged from 49 records on January 4, 2013
WEATHER CONDITIONS BREAKOUT
WIND DIRECTION BREAKOUT
WEATHER BY HOUR - JANUARY 4, 2013
[ °C ]   °F
Local TimeTemperatureDewpointHumidityBarometerVisibilityWind DirectionWind SpeedGust SpeedPrecipitationEventsConditions
1:53 AM12.0 °F6.1 °F77 %30.29 in7.0 miCalmClear
2:53 AM9.0 °F3.9 °F80 %30.32 in9.0 miCalmClear
3:53 AM8.1 °F1.9 °F76 %30.36 in8.0 miSSW (200°)3.5 mphClear
4:53 AM5.0 °F0.0 °F80 %30.42 in10.0 miSouth (190°)4.6 mphClear
5:53 AM7.0 °F1.0 °F77 %30.42 in10.0 miCalmClear
6:53 AM9.0 °F3.9 °F80 %30.41 in10.0 miCalmClear
7:53 AM5.0 °F-2.0 °F73 %30.48 in9.0 miSSW (200°)3.5 mphClear
8:53 AM12.0 °F7.0 °F80 %30.46 in9.0 miSouth (180°)3.5 mphClear
9:53 AM23.0 °F17.1 °F78 %30.42 in10.0 miSouth (180°)4.6 mphClear
10:53 AM33.1 °F21.0 °F61 %30.36 in10.0 miCalmClear
11:53 AM41.0 °F24.1 °F51 %30.28 in10.0 miNE (40°)4.6 mphClear
12:53 PM42.1 °F27.0 °F55 %30.26 in10.0 miNNE (30°)6.9 mphClear
1:53 PM41.0 °F27.0 °F57 %30.26 in10.0 miNNE (30°)8.1 mphClear
2:53 PM44.1 °F26.1 °F49 %30.25 in10.0 miNE (40°)3.5 mphClear
3:53 PM36.0 °F30.0 °F79 %30.29 in10.0 miCalmClear
4:53 PM32.0 °F27.0 °F82 %30.32 in10.0 miCalmClear
5:03 PM28.4 °F24.8 °F86 %30.20 in2.5 miCalmClear
5:12 PM28.4 °F23.0 °F80 %30.20 in6.0 miCalmHaze
5:34 PM28.4 °F24.8 °F86 %30.20 in4.0 miCalmClear
5:41 PM28.4 °F24.8 °F86 %30.20 in6.0 miCalmClear
5:46 PM28.4 °F24.8 °F86 %30.20 in2.0 miCalmClear
5:49 PM26.6 °F23.0 °F86 %30.20 in0.5 miCalmFogLight Freezing Fog
5:53 PM26.1 °F21.9 °F84 %30.35 in0.5 miCalmFogLight Freezing Fog
6:06 PM28.4 °F24.8 °F86 %30.21 in2.5 miCalmClear
6:08 PM28.4 °F24.8 °F86 %30.21 in6.0 miCalmClear
6:13 PM26.6 °F23.0 °F86 %30.21 in1.8 miCalmClear
6:20 PM24.8 °F21.2 °F86 %30.21 in0.5 miCalmFogLight Freezing Fog
6:32 PM26.6 °F23.0 °F86 %30.22 in1.2 miCalmPartly Cloudy
6:35 PM26.6 °F23.0 °F86 %30.22 in3.0 miCalmPartly Cloudy
6:45 PM24.8 °F21.2 °F86 %30.22 in1.2 miCalmPartly Cloudy
6:47 PM24.8 °F21.2 °F86 %30.22 in0.8 miCalmMist
6:53 PM25.0 °F21.0 °F85 %30.36 in1.0 miCalmClear
7:04 PM24.8 °F21.2 °F86 %30.22 in0.2 miCalmFogLight Freezing Fog
7:12 PM26.6 °F21.2 °F80 %30.22 in1.2 miCalmHaze
7:14 PM26.6 °F23.0 °F86 %30.22 in3.0 miCalmPartly Cloudy
7:22 PM26.6 °F23.0 °F86 %30.22 in1.8 miCalmPartly Cloudy
7:30 PM24.8 °F21.2 °F86 %30.22 in0.5 miCalmFogLight Freezing Fog
7:53 PM25.0 °F21.0 °F85 %30.39 in0.5 miSSW (200°)3.5 mphFogLight Freezing Fog
7:57 PM24.8 °F21.2 °F86 %30.22 in1.5 miCalmScattered Clouds
8:01 PM24.8 °F19.4 °F80 %30.22 in0.8 miCalmMist
8:24 PM21.2 °F19.4 °F93 %30.22 in1.2 miSouth (190°)3.5 mphPartly Cloudy
8:32 PM23.0 °F19.4 °F86 %30.22 in3.0 miSouth (180°)3.5 mphPartly Cloudy
8:48 PM24.8 °F19.4 °F80 %30.22 in6.0 miCalmHaze
8:53 PM21.9 °F19.0 °F89 %30.37 in2.5 miCalmClear
9:06 PM23.0 °F17.6 °F80 %30.23 in3.0 miCalmHaze
9:14 PM21.2 °F17.6 °F86 %30.23 in5.0 miSouth (180°)3.5 mphClear
9:53 PM21.9 °F18.0 °F85 %30.33 in8.0 miCalmClear
10:53 PM19.9 °F15.1 °F81 %30.31 in9.0 miCalmClear
11:53 PM18.0 °F12.9 °F81 %30.27 in9.0 miCalmClear
Hourly data recorded from KTVL, located miles away from South Lake Tahoe, California







STORIES FROM OUR PARTNERS